Weather History for Lanai City, HI

Change the Weather History Date:

Tuesday, November 5, 2013

  Actual Average Record
Temperature  
Mean Temperature 74 °F -  
Max Temperature 82 °F 80 °F 84 °F (1951)
Min Temperature 66 °F 64 °F 58 °F (1955)
Cooling Degree Days 9    
Growing Degree Days 24 (Base 50)    
Moisture  
Dew Point 66 °F    
Average Humidity 79    
Maximum Humidity 90    
Minimum Humidity 54    
Precipitation  
Precipitation 0.04 in - - ()
Sea Level Pressure  
Sea Level Pressure 29.97 in    
Wind  
Wind Speed 10 mph (NE)    
Max Wind Speed 17 mph    
Max Gust Speed 23 mph    
Visibility 10 miles    
Events Rain    
Averages and records for this station are not official NWS values.
T = Trace of Precipitation, MM = Missing Value Source: NWS Daily Summary

Daily Weather History Graph

Daily Weather History Graph

Search for Another Location

Airport:

Trip Planner

Search our weather history database for the weather conditions in past years. The results will help you decide how hot, cold, wet, or windy it might be!

Date:

Astronomy

Nov. 05, 2013 Rise Set
Actual Time 6:32 AM HST 5:50 PM HST
Civil Twilight 6:09 AM HST 6:13 PM HST
Nautical Twilight 5:43 AM HST 6:39 PM HST
Astronomical Twilight 5:16 AM HST 7:05 PM HST
Moon 8:48 AM HST (11/5) 8:13 PM HST (11/5)
Length of Visible Light 12h 03m
Length of Day
11h 17m
Waxing Crescent, 8% of the Moon is Illuminated
Nov 5
Waxing Crescent
Nov 9
First Quarter
Nov 17
Full
Nov 25
Last Quarter
Dec 2
New

Hourly Weather History & Observations

Time (HST) Temp. Heat Index Dew Point Humidity Pressure Visibility Wind Dir Wind Speed Gust Speed Precip Events Conditions
12:56 AM 70.0 °F - 65.8 °F 87% 29.98 in 10.0 mi NE 11.5 mph - N/A   Clear
1:56 AM 68.9 °F - 63.9 °F 84% 29.98 in 10.0 mi East 6.9 mph - N/A   Clear
2:56 AM 68.9 °F - 63.9 °F 84% 29.96 in 10.0 mi ENE 10.4 mph - N/A   Clear
3:56 AM 68.9 °F - 64.9 °F 87% 29.95 in 10.0 mi ENE 10.4 mph - N/A   Clear
4:56 AM 66.9 °F - 63.0 °F 87% 29.95 in 10.0 mi East 9.2 mph - N/A   Clear
5:56 AM 68.9 °F - 64.9 °F 87% 29.96 in 10.0 mi East 9.2 mph - N/A   Clear
6:56 AM 70.0 °F - 65.8 °F 87% 29.98 in 10.0 mi ENE 13.8 mph - N/A   Clear
7:56 AM 73.9 °F - 65.8 °F 76% 29.98 in 10.0 mi NE 13.8 mph 21.9 mph N/A   Clear
8:56 AM 77.0 °F - 65.8 °F 68% 29.99 in 10.0 mi NNE 16.1 mph 23.0 mph N/A   Clear
9:56 AM 81.0 °F 82.7 °F 64.9 °F 58% 30.00 in 10.0 mi NE 17.3 mph - N/A   Clear
10:56 AM 82.4 °F 83.9 °F 64.4 °F 54% 30.06 in 10.0 mi NE 15.0 mph - N/A   Overcast
11:56 AM 81.0 °F 83.3 °F 66.9 °F 62% 29.97 in 10.0 mi ESE 8.1 mph - N/A   Mostly Cloudy
12:56 PM 79.0 °F - 68.0 °F 69% 29.95 in 9.0 mi SSW 6.9 mph - N/A   Overcast
1:56 PM 75.9 °F - 68.0 °F 76% 29.94 in 10.0 mi ENE 5.8 mph - 0.00 in Rain Light Rain
2:56 PM 74.8 °F - 68.0 °F 79% 29.94 in 10.0 mi North 9.2 mph - 0.04 in   Overcast
3:18 PM 75.2 °F - 71.6 °F 89% 30.00 in 10.0 mi WNW 3.5 mph - N/A   Overcast
3:56 PM 77.0 °F - 68.9 °F 76% 29.94 in 10.0 mi West 8.1 mph - N/A   Overcast
4:08 PM 77.0 °F - 68.0 °F 74% 30.00 in 10.0 mi Variable 3.5 mph - N/A   Mostly Cloudy
4:44 PM 75.2 °F - 64.4 °F 69% 30.00 in 10.0 mi NE 8.1 mph - N/A   Scattered Clouds
4:56 PM 75.9 °F - 65.8 °F 71% 29.94 in 10.0 mi NNE 9.2 mph - N/A   Clear
5:56 PM 72.9 °F - 66.9 °F 82% 29.96 in 10.0 mi NE 6.9 mph - N/A   Clear
6:56 PM 70.9 °F - 66.9 °F 87% 29.98 in 10.0 mi NNE 10.4 mph - N/A   Mostly Cloudy
7:56 PM 70.9 °F - 66.9 °F 87% 29.97 in 10.0 mi NE 10.4 mph - N/A   Clear
8:56 PM 70.0 °F - 65.8 °F 87% 29.99 in 10.0 mi ENE 6.9 mph - N/A   Clear
9:56 PM 70.0 °F - 65.8 °F 87% 29.99 in 10.0 mi East 9.2 mph - N/A   Clear
10:56 PM 70.0 °F - 66.9 °F 90% 29.98 in 10.0 mi ENE 5.8 mph - N/A   Clear
11:56 PM 70.0 °F - 66.9 °F 90% 29.97 in 10.0 mi NE 10.4 mph - N/A   Clear